Terminal Aerodrome Forecast
Issued by NWS

Home | Current Version | Previous Version | Text Only | Print | Product List | Glossary On
Versions: 1 2 3 4 5 6 7 8 9 10 11 12 13 14 15 16 17 18
000
FTUS44 KLZK 030903 AAA
TAFPBF
TAF AMD
KPBF 030903Z 0309/0406 00000KT P6SM SCT004
      TEMPO 0309/0312 2SM BR BKN004
     FM031500 17005KT P6SM SCT040
     FM040000 14003KT P6SM SKC=

USA.gov is the U.S. government's official web portal to all federal, state and local government web resources and services.